N1NSI Weather Reports


Display with metric or nautical units.
time (UTC)temp
F
wind
direction
speed
MPH
gust
MPH
rain 1hr
in
rain 24hr
in
rain mn
in
humidity
%
barometer
mb
20191113072014 16 287 1.0 4.0 0.00 0.07 0.00 60 1016.1
20191113071519 16 284 1.0 4.0 0.00 0.07 0.00 59 1016.1
20191113071025 16 283 1.0 2.0 0.00 0.07 0.00 58 1016.3
20191113070525 17 280 1.0 4.0 0.00 0.07 0.00 56 1016.3
20191113070023 17 274 0.0 4.0 0.00 0.07 0.00 57 1016.3
20191113065513 17 285 1.0 4.0 0.00 0.07 0.00 56 1016.1
20191113065013 17 304 1.0 4.0 0.00 0.07 0.00 58 1016.1
20191113064521 17 305 1.0 4.0 0.00 0.07 0.00 58 1016.1
20191113064005 17 289 1.0 4.0 0.00 0.07 0.00 57 1016.0
20191113063505 17 286 1.0 4.0 0.00 0.07 0.00 57 1016.0
20191113063006 17 294 1.0 4.0 0.00 0.07 0.00 58 1016.0
20191113062505 17 302 1.0 4.0 0.00 0.07 0.00 58 1016.2
20191113062006 17 301 1.0 4.0 0.00 0.07 0.00 57 1016.2
20191113061505 17 294 2.0 6.0 0.00 0.07 0.00 56 1016.2
20191113061005 18 296 1.0 6.0 0.00 0.07 0.00 57 1016.1
20191113060506 18 294 2.0 7.0 0.00 0.07 0.00 57 1016.1
20191113060005 18 285 2.0 7.0 0.00 0.07 0.00 58 1016.1
20191113055505 18 274 1.0 6.0 0.00 0.07 0.00 58 1016.2
20191113055005 18 282 1.0 6.0 0.00 0.07 0.00 58 1016.2
20191113054506 18 284 2.0 6.0 0.00 0.07 0.00 57 1016.2
20191113054005 18 285 2.0 6.0 0.00 0.07 0.00 58 1016.3
20191113053505 18 290 2.0 6.0 0.00 0.07 0.00 58 1016.3
20191113053006 18 300 2.0 6.0 0.00 0.07 0.00 58 1016.3
20191113052505 18 309 2.0 6.0 0.00 0.07 0.00 60 1016.0
20191113052005 18 292 2.0 7.0 0.00 0.07 0.00 60 1016.0
20191113051505 18 286 2.0 7.0 0.00 0.07 0.00 63 1016.0
20191113051006 18 302 1.0 6.0 0.00 0.07 0.00 64 1015.8
20191113050505 18 310 1.0 4.0 0.00 0.07 0.00 63 1015.8
20191113050006 18 296 1.0 4.0 0.00 0.07 0.00 65 1015.9
20191113045505 18 294 1.0 4.0 0.00 0.07 0.07 66 1015.9
20191113045005 18 301 1.0 4.0 0.00 0.07 0.07 66 1015.9
20191113044505 18 305 1.0 6.0 0.00 0.07 0.07 67 1015.9
20191113044005 18 325 1.0 6.0 0.00 0.07 0.07 66 1015.8
20191113043505 19 335 1.0 4.0 0.00 0.07 0.07 64 1015.8
20191113043005 19 335 1.0 6.0 0.00 0.07 0.07 63 1015.8
20191113042505 19 334 1.0 6.0 0.00 0.07 0.07 61 1015.5
20191113042005 19 322 1.0 2.0 0.00 0.07 0.07 61 1015.5
20191113041505 19 318 0.0 2.0 0.00 0.07 0.07 62 1015.5
20191113041005 20 318 0.0 2.0 0.00 0.07 0.07 62 1015.3
20191113040505 20 318 0.0 2.0 0.00 0.07 0.07 63 1015.3
20191113040005 20 318 0.0 2.0 0.00 0.07 0.07 64 1015.3
20191113035505 20 318 0.0 2.0 0.00 0.07 0.07 65 1015.2
20191113035005 20 318 0.0 2.0 0.00 0.07 0.07 63 1015.2
20191113034505 20 318 0.0 2.0 0.00 0.07 0.07 65 1015.2
20191113034005 20 318 0.0 2.0 0.00 0.07 0.07 67 1015.1
20191113033505 20 318 0.0 1.0 0.00 0.07 0.07 68 1015.1
20191113033005 20 318 0.0 2.0 0.00 0.07 0.07 68 1015.1
20191113032505 20 318 0.0 2.0 0.00 0.07 0.07 69 1014.9
20191113032006 20 318 0.0 2.0 0.00 0.07 0.07 70 1014.9
20191113031505 20 318 0.0 2.0 0.00 0.07 0.07 70 1014.9
20191113031005 20 318 0.0 2.0 0.00 0.07 0.07 70 1014.8
20191113030505 20 318 0.0 1.0 0.00 0.07 0.07 70 1014.8
20191113030004 20 318 0.0 2.0 0.00 0.07 0.07 71 1014.8
20191113025505 21 318 0.0 2.0 0.00 0.07 0.07 70 1014.8
20191113025005 21 317 1.0 2.0 0.00 0.07 0.07 70 1014.8
20191113024505 21 323 1.0 6.0 0.00 0.07 0.07 69 1014.8
20191113024005 21 328 1.0 6.0 0.00 0.07 0.07 68 1014.6
20191113023505 22 327 2.0 6.0 0.00 0.07 0.07 65 1014.6
20191113023004 22 321 1.0 6.0 0.00 0.07 0.07 63 1014.6
20191113022505 22 302 1.0 4.0 0.00 0.07 0.07 62 1014.3
20191113022005 22 290 1.0 4.0 0.00 0.07 0.07 63 1014.3
20191113021505 22 285 1.0 6.0 0.00 0.07 0.07 62 1014.3
20191113021004 22 284 1.0 6.0 0.00 0.07 0.07 62 1014.4
20191113020505 22 288 2.0 7.0 0.00 0.07 0.07 62 1014.4
20191113020004 22 289 2.0 7.0 0.00 0.07 0.07 62 1014.4
20191113015505 22 303 2.0 7.0 0.00 0.07 0.07 63 1014.4
20191113015005 22 292 2.0 8.0 0.00 0.07 0.07 62 1014.4
20191113014505 22 279 2.0 8.0 0.00 0.07 0.07 61 1014.4
20191113014005 22 281 2.0 7.0 0.00 0.07 0.07 61 1014.1
20191113013505 23 289 2.0 7.0 0.00 0.07 0.07 61 1014.1
20191113013007 23 290 2.0 7.0 0.00 0.07 0.07 60 1014.1
20191113012504 23 276 2.0 6.0 0.00 0.07 0.07 60 1013.8
20191113012005 23 279 2.0 6.0 0.00 0.07 0.07 61 1013.8
20191113011505 23 276 1.0 6.0 0.00 0.07 0.07 62 1013.8
20191113011004 23 279 2.0 6.0 0.00 0.07 0.07 62 1013.3
20191113010505 24 288 2.0 6.0 0.00 0.07 0.07 63 1013.3
20191113010005 24 291 2.0 6.0 0.00 0.07 0.07 63 1013.3
20191113005504 24 297 1.0 6.0 0.00 0.07 0.07 62 1013.2
20191113005005 24 294 1.0 4.0 0.00 0.07 0.07 64 1013.2
20191113004505 24 301 1.0 4.0 0.00 0.07 0.07 64 1013.2
20191113004004 25 301 1.0 4.0 0.00 0.07 0.07 64 1012.8
20191113003505 25 283 1.0 6.0 0.00 0.07 0.07 63 1012.8
20191113003004 25 277 2.0 7.0 0.00 0.07 0.07 62 1012.8
20191113002504 25 272 2.0 7.0 0.00 0.07 0.07 64 1012.7
20191113002005 25 276 2.0 7.0 0.00 0.07 0.07 64 1012.7
20191113001505 26 279 1.0 6.0 0.00 0.07 0.07 67 1012.7
20191113001005 26 277 0.0 4.0 0.00 0.07 0.07 68 1012.8
20191113000504 26 286 0.0 2.0 0.00 0.07 0.07 68 1012.8
20191113000004 26 285 0.0 1.0 0.00 0.07 0.07 69 1012.8
20191112235505 26 0 0.0 0.0 0.00 0.07 0.07 69 1012.6
20191112235004 26 285 0.0 2.0 0.00 0.07 0.07 68 1012.6
20191112234504 26 280 0.0 2.0 0.00 0.07 0.07 68 1012.6
20191112234004 26 275 0.0 2.0 0.00 0.07 0.07 70 1012.3
20191112233505 26 283 0.0 1.0 0.00 0.07 0.07 70 1012.3
20191112233004 26 292 0.0 1.0 0.00 0.07 0.07 70 1012.3
20191112232504 26 292 0.0 2.0 0.00 0.07 0.07 71 1012.3
20191112232004 26 288 0.0 2.0 0.00 0.07 0.07 71 1012.3
20191112231504 26 274 0.0 2.0 0.00 0.07 0.07 71 1012.3
20191112231004 27 277 0.0 2.0 0.00 0.07 0.07 73 1012.2
20191112230505 27 279 0.0 2.0 0.00 0.07 0.07 73 1012.2
20191112230004 27 281 0.0 2.0 0.00 0.07 0.07 73 1012.2
20191112225504 27 282 1.0 2.0 0.00 0.07 0.07 73 1011.9
20191112225005 27 276 1.0 4.0 0.00 0.07 0.07 73 1011.9
20191112224504 27 267 1.0 4.0 0.00 0.07 0.07 72 1011.9
20191112224004 27 268 1.0 4.0 0.00 0.07 0.07 73 1011.7
20191112223504 27 270 0.0 4.0 0.00 0.07 0.07 73 1011.7
20191112223004 27 264 0.0 1.0 0.00 0.07 0.07 73 1011.7
20191112222504 27 0 0.0 0.0 0.00 0.07 0.07 72 1011.4
20191112222005 27 264 0.0 1.0 0.00 0.07 0.07 72 1011.4
20191112221504 27 264 0.0 1.0 0.00 0.07 0.07 71 1011.4
20191112221004 27 0 0.0 0.0 0.00 0.07 0.07 71 1011.3
20191112220505 27 264 0.0 1.0 0.00 0.07 0.07 70 1011.3
20191112220004 27 264 0.0 1.0 0.00 0.07 0.07 69 1011.3
20191112215504 27 264 0.0 1.0 0.00 0.07 0.07 69 1011.2
20191112215004 27 292 0.0 2.0 0.00 0.08 0.07 69 1011.2
20191112214504 27 311 0.0 4.0 0.00 0.08 0.07 69 1011.2
20191112214004 27 299 0.0 4.0 0.00 0.08 0.07 68 1011.1
20191112213504 27 289 0.0 2.0 0.00 0.08 0.07 69 1011.1
20191112213004 27 309 0.0 2.0 0.00 0.08 0.07 68 1011.1
20191112212504 27 318 1.0 4.0 0.00 0.08 0.07 69 1011.0
20191112212004 27 315 1.0 4.0 0.00 0.08 0.07 68 1011.0
20191112211504 27 299 1.0 4.0 0.00 0.08 0.07 68 1011.0
20191112211005 27 302 1.0 7.0 0.00 0.08 0.07 68 1010.7
20191112210504 27 300 2.0 7.0 0.00 0.08 0.07 67 1010.7
20191112210004 27 295 1.0 7.0 0.00 0.08 0.07 68 1010.7
20191112205503 27 309 1.0 7.0 0.00 0.08 0.07 69 1010.6
20191112205004 27 306 1.0 7.0 0.00 0.08 0.07 68 1010.6
20191112204504 28 309 1.0 4.0 0.00 0.08 0.07 69 1010.6
20191112204004 28 313 0.0 4.0 0.00 0.08 0.07 70 1010.4
20191112203504 28 288 0.0 2.0 0.00 0.08 0.07 71 1010.4
20191112203006 28 288 0.0 1.0 0.00 0.08 0.07 72 1010.4
20191112202505 28 290 0.0 1.0 0.00 0.08 0.07 72 1010.5
20191112202006 28 292 0.0 1.0 0.00 0.08 0.07 73 1010.5
20191112201505 28 293 0.0 1.0 0.00 0.08 0.07 73 1010.5
20191112201006 28 293 0.0 1.0 0.00 0.08 0.07 73 1010.2
20191112200506 28 293 0.0 1.0 0.00 0.08 0.07 73 1010.2
20191112200005 28 292 0.0 1.0 0.00 0.08 0.07 73 1010.2
20191112195506 28 291 0.0 1.0 0.00 0.08 0.07 72 1009.7
20191112195005 28 292 0.0 2.0 0.00 0.08 0.07 73 1009.7
20191112194505 28 303 0.0 4.0 0.00 0.08 0.07 73 1009.7
20191112194006 28 304 1.0 7.0 0.00 0.08 0.07 72 1009.7
20191112193505 28 305 1.0 7.0 0.00 0.08 0.07 72 1009.7
20191112193006 28 306 0.0 2.0 0.00 0.08 0.07 73 1009.7
20191112192505 28 316 0.0 4.0 0.00 0.08 0.07 73 1009.6
20191112192005 28 313 1.0 4.0 0.00 0.08 0.07 73 1009.6
20191112191506 28 317 1.0 4.0 0.00 0.08 0.07 73 1009.6
20191112191006 28 324 1.0 4.0 0.00 0.08 0.07 73 1009.1
20191112190505 28 318 1.0 6.0 0.00 0.08 0.07 73 1009.1
20191112190005 28 312 1.0 6.0 0.00 0.08 0.07 71 1009.1
20191112185505 28 298 1.0 6.0 0.00 0.08 0.07 74 1008.6
20191112185005 29 297 2.0 6.0 0.00 0.08 0.07 73 1008.6
20191112184505 29 303 2.0 6.0 0.00 0.08 0.07 74 1008.6
20191112184006 29 300 1.0 4.0 0.00 0.08 0.07 75 1008.6
20191112183506 29 301 1.0 6.0 0.00 0.08 0.07 76 1008.6
20191112183005 29 316 2.0 7.0 0.00 0.08 0.07 77 1008.6
20191112182506 29 306 2.0 7.0 0.00 0.08 0.07 77 1008.1
20191112182006 30 290 2.0 6.0 0.00 0.08 0.07 79 1008.1
20191112181506 30 293 1.0 4.0 0.00 0.08 0.07 79 1008.1
20191112181006 30 273 2.0 6.0 0.00 0.08 0.07 80 1008.1
20191112180505 30 275 2.0 6.0 0.00 0.08 0.07 80 1008.1
20191112180005 30 278 2.0 7.0 0.00 0.08 0.07 81 1008.1
20191112175505 30 273 2.0 7.0 0.00 0.08 0.07 82 1007.6
20191112175006 30 272 2.0 4.0 0.00 0.08 0.07 82 1007.6
20191112174505 30 291 2.0 7.0 0.00 0.08 0.07 82 1007.6
20191112174005 30 304 3.0 7.0 0.00 0.08 0.07 82 1007.4
20191112173506 30 313 3.0 7.0 0.00 0.08 0.07 83 1007.4
20191112173005 30 319 3.0 7.0 0.00 0.08 0.07 84 1007.4
20191112172505 31 317 1.0 6.0 0.00 0.08 0.07 86 1007.0
20191112172005 31 309 1.0 6.0 0.00 0.08 0.07 86 1007.0
20191112171505 31 308 1.0 6.0 0.00 0.08 0.07 86 1007.0
20191112171005 31 318 2.0 7.0 0.00 0.08 0.07 86 1006.6
20191112170504 31 314 3.0 7.0 0.00 0.08 0.07 86 1006.6
20191112170005 32 313 3.0 7.0 0.00 0.08 0.07 87 1006.6
20191112165505 32 312 3.0 7.0 0.00 0.08 0.07 88 1006.4
20191112165005 32 312 2.0 7.0 0.00 0.08 0.07 87 1006.4
20191112164506 33 312 2.0 7.0 0.00 0.08 0.07 88 1006.4
20191112164005 33 310 1.0 4.0 0.00 0.08 0.07 88 1006.4
20191112163505 33 315 1.0 4.0 0.00 0.08 0.07 88 1006.4
20191112163005 33 314 1.0 4.0 0.00 0.08 0.07 88 1006.4
20191112162505 33 318 1.0 4.0 0.00 0.08 0.07 88 1006.1
20191112162005 33 322 1.0 4.0 0.01 0.08 0.07 88 1006.1
20191112161505 33 326 0.0 2.0 0.01 0.08 0.07 88 1006.1
20191112161005 33 305 1.0 4.0 0.01 0.08 0.07 88 1006.1
20191112160505 33 314 1.0 4.0 0.01 0.08 0.07 88 1006.1
20191112160005 33 34 0.0 2.0 0.02 0.08 0.07 88 1006.1
20191112155505 33 34 0.0 2.0 0.02 0.08 0.07 88 1006.1
20191112155005 33 34 0.0 2.0 0.02 0.08 0.07 88 1006.1
20191112154504 33 35 0.0 2.0 0.02 0.08 0.07 88 1006.1
20191112154005 33 37 0.0 2.0 0.02 0.08 0.07 88 1006.3
20191112153505 33 38 0.0 1.0 0.02 0.08 0.07 88 1006.3
20191112153005 33 38 0.0 1.0 0.02 0.08 0.07 88 1006.3
20191112152505 33 38 0.0 1.0 0.02 0.08 0.07 88 1006.2
20191112152005 33 38 0.0 1.0 0.01 0.07 0.06 88 1006.2
20191112151505 33 0 0.0 0.0 0.01 0.07 0.06 88 1006.2
20191112151005 33 0 0.0 0.0 0.01 0.07 0.06 87 1006.3
20191112150505 33 0 0.0 0.0 0.01 0.07 0.06 88 1006.3
20191112150005 33 0 0.0 0.0 0.01 0.06 0.05 88 1006.3
20191112145505 33 0 0.0 0.0 0.01 0.06 0.05 88 1006.1
20191112145005 33 0 0.0 0.0 0.01 0.06 0.05 88 1006.1
20191112144505 33 0 0.0 0.0 0.01 0.06 0.05 89 1006.1
20191112144005 33 0 0.0 0.0 0.01 0.06 0.05 88 1006.0
20191112143504 33 0 0.0 0.0 0.01 0.06 0.05 87 1006.0
20191112143005 33 0 0.0 0.0 0.02 0.06 0.05 87 1006.0
20191112142504 33 0 0.0 0.0 0.02 0.06 0.05 87 1006.1
20191112142005 33 0 0.0 0.0 0.03 0.06 0.05 87 1006.1
20191112141504 33 0 0.0 0.0 0.03 0.06 0.05 87 1006.1
20191112141005 33 0 0.0 0.0 0.03 0.06 0.05 87 1006.0
20191112140504 33 0 0.0 0.0 0.03 0.06 0.05 87 1006.0
20191112140004 33 38 0.0 1.0 0.02 0.05 0.04 87 1006.0
20191112135505 33 38 0.0 1.0 0.02 0.05 0.04 87 1005.7
20191112135005 33 38 0.0 1.0 0.02 0.05 0.04 87 1005.7
20191112134504 33 0 0.0 0.0 0.02 0.05 0.04 87 1005.7
20191112134005 33 0 0.0 0.0 0.03 0.05 0.04 87 1005.9
20191112133505 33 0 0.0 0.0 0.03 0.05 0.04 87 1005.9
20191112133005 33 38 0.0 1.0 0.02 0.04 0.03 87 1005.9
20191112132504 33 38 0.0 1.0 0.02 0.04 0.03 87 1005.9
20191112132005 33 38 0.0 1.0 0.01 0.03 0.02 87 1005.9
20191112131505 33 38 0.0 1.0 0.01 0.03 0.02 87 1005.9
20191112131005 33 37 0.0 1.0 0.01 0.03 0.02 87 1005.5
20191112130504 33 0 0.0 0.0 0.01 0.03 0.02 87 1005.5
20191112130005 33 0 0.0 0.0 0.01 0.03 0.02 87 1005.5
20191112125504 33 0 0.0 0.0 0.01 0.03 0.02 86 1005.2
20191112125005 33 0 0.0 0.0 0.02 0.03 0.02 86 1005.2
20191112124505 33 0 0.0 0.0 0.02 0.03 0.02 86 1005.2
20191112124004 33 0 0.0 0.0 0.01 0.02 0.01 86 1005.5
20191112123505 33 0 0.0 0.0 0.01 0.02 0.01 86 1005.5
20191112123005 32 0 0.0 0.0 0.01 0.02 0.01 86 1005.5
20191112122504 32 0 0.0 0.0 0.01 0.02 0.01 86 1004.7
20191112122004 33 0 0.0 0.0 0.01 0.02 0.01 86 1004.7
20191112121505 32 37 0.0 1.0 0.01 0.02 0.01 86 1004.7
20191112121006 32 37 0.0 1.0 0.01 0.02 0.01 86 1004.9
20191112120505 32 0 0.0 0.0 0.01 0.02 0.01 86 1004.9
20191112120005 32 0 0.0 0.0 0.01 0.02 0.01 86 1004.9
20191112115504 32 0 0.0 0.0 0.01 0.02 0.01 86 1004.8
20191112115005 32 0 0.0 0.0 0.00 0.01 0.00 86 1004.8
20191112114506 32 0 0.0 0.0 0.00 0.01 0.00 86 1004.8
20191112114004 32 0 0.0 0.0 0.00 0.01 0.00 86 1005.3
20191112113504 32 0 0.0 0.0 0.00 0.01 0.00 86 1005.3
20191112113004 32 0 0.0 0.0 0.00 0.01 0.00 86 1005.3
20191112112504 32 0 0.0 0.0 0.00 0.01 0.00 86 1005.9
20191112112004 32 0 0.0 0.0 0.00 0.01 0.00 86 1005.9
20191112111505 32 0 0.0 0.0 0.00 0.01 0.00 86 1005.9
20191112111004 32 0 0.0 0.0 0.00 0.01 0.00 86 1006.0
20191112110504 32 0 0.0 0.0 0.00 0.01 0.00 86 1006.0
20191112110005 32 0 0.0 0.0 0.00 0.01 0.00 86 1006.0
20191112105504 32 0 0.0 0.0 0.00 0.01 0.00 86 1005.9
20191112105004 32 0 0.0 0.0 0.00 0.01 0.00 86 1005.9
20191112104505 32 0 0.0 0.0 0.00 0.01 0.00 86 1005.9
20191112104004 32 0 0.0 0.0 0.00 0.01 0.00 86 1006.8
20191112103504 32 0 0.0 0.0 0.00 0.01 0.00 85 1006.8
20191112103005 32 0 0.0 0.0 0.00 0.01 0.00 85 1006.8
20191112102504 32 0 0.0 0.0 0.00 0.01 0.00 85 1007.1
20191112102004 32 37 0.0 1.0 0.00 0.01 0.00 85 1007.1
20191112101504 32 37 0.0 1.0 0.00 0.01 0.00 85 1007.1
20191112101004 32 0 0.0 0.0 0.00 0.01 0.00 85 1007.1
20191112100505 32 0 0.0 0.0 0.00 0.01 0.00 85 1007.1
20191112100004 32 0 0.0 0.0 0.00 0.01 0.00 85 1007.1
20191112095504 32 0 0.0 0.0 0.00 0.01 0.00 85 1006.6
20191112095004 32 0 0.0 0.0 0.00 0.01 0.00 85 1006.6
20191112094504 32 0 0.0 0.0 0.00 0.01 0.00 85 1006.6
20191112094004 32 0 0.0 0.0 0.00 0.01 0.00 85 1007.5
20191112093505 32 0 0.0 0.0 0.00 0.01 0.00 85 1007.5
20191112093004 32 0 0.0 0.0 0.00 0.01 0.00 85 1007.5
20191112092504 32 0 0.0 0.0 0.00 0.01 0.00 85 1007.3
20191112092003 32 0 0.0 0.0 0.00 0.01 0.00 84 1007.3
20191112091510 32 0 0.0 0.0 0.00 0.01 0.00 84 1007.3
20191112091003 32 0 0.0 0.0 0.00 0.01 0.00 84 1007.7
20191112090504 32 0 0.0 0.0 0.00 0.01 0.00 84 1007.7
20191112090004 32 0 0.0 0.0 0.00 0.01 0.00 84 1007.7
20191112085504 32 0 0.0 0.0 0.00 0.01 0.00 84 1007.7
20191112085004 32 0 0.0 0.0 0.00 0.01 0.00 84 1007.7
20191112084504 32 0 0.0 0.0 0.00 0.01 0.00 84 1007.7
20191112084004 32 0 0.0 0.0 0.00 0.01 0.00 84 1008.2
20191112083504 32 0 0.0 0.0 0.00 0.01 0.00 84 1008.2
20191112083006 32 0 0.0 0.0 0.00 0.01 0.00 84 1008.2
20191112082505 32 0 0.0 0.0 0.00 0.01 0.00 84 1008.5
20191112082006 32 0 0.0 0.0 0.00 0.01 0.00 84 1008.5
20191112081505 32 0 0.0 0.0 0.00 0.01 0.00 84 1008.5
20191112081006 32 0 0.0 0.0 0.00 0.01 0.00 84 1007.8
20191112080505 32 37 0.0 1.0 0.00 0.01 0.00 84 1007.8
20191112080006 32 37 0.0 1.0 0.00 0.01 0.00 84 1007.9
20191112075506 32 37 0.0 1.0 0.00 0.01 0.00 84 1008.6
20191112075005 32 38 0.0 1.0 0.00 0.01 0.00 84 1008.6
20191112074506 32 37 0.0 1.0 0.00 0.01 0.00 84 1008.6
20191112074007 32 37 0.0 1.0 0.00 0.01 0.00 84 1009.0
20191112073505 32 37 0.0 1.0 0.00 0.01 0.00 84 1009.0
20191112073006 32 38 0.0 1.0 0.00 0.01 0.00 84 1009.0
20191112072506 33 38 0.0 1.0 0.00 0.01 0.00 84 1009.8